| time (UTC) | temp F | wind direction | speed knots | gust knots | rain 1hr in | rain 24hr in | rain mn in | humidity % | barometer mb |
| 20260508033942 | 59 | 180 | 0.0 | 0.0 | 0.04 | 0.22 | 0.04 | 85 | 1012.0 |
| 20260508032440 | 59 | 180 | 0.0 | 0.9 | 0.04 | 0.22 | 0.04 | 85 | 1012.0 |
| 20260508030941 | 59 | 225 | 0.0 | 0.9 | 0.04 | 0.22 | 0.04 | 85 | 1012.0 |
| 20260508025441 | 59 | 180 | 0.0 | 0.0 | 0.00 | 0.18 | 0.00 | 85 | 1012.0 |
| 20260507182440 | 65 | 248 | 0.0 | 0.0 | 0.00 | 0.18 | 0.04 | 67 | 1011.0 |
| 20260507180941 | 65 | 248 | 0.0 | 0.0 | 0.00 | 0.18 | 0.04 | 67 | 1011.0 |
| 20260507175440 | 65 | 22 | 0.0 | 0.0 | 0.16 | 0.18 | 0.18 | 66 | 1010.0 |
| 20260507173940 | 65 | 202 | 0.0 | 1.7 | 0.16 | 0.18 | 0.18 | 65 | 1010.0 |
| 20260507172441 | 65 | 112 | 0.0 | 1.7 | 0.18 | 0.20 | 0.20 | 65 | 1010.0 |
| 20260507170941 | 65 | 202 | 0.9 | 3.5 | 0.18 | 0.20 | 0.20 | 66 | 1011.0 |
| 20260507165440 | 66 | 112 | 0.0 | 0.0 | 0.02 | 0.02 | 0.02 | 63 | 1010.0 |
| 20260507163940 | 68 | 112 | 0.0 | 0.0 | 0.02 | 0.02 | 0.02 | 60 | 1010.0 |
| 20260507162445 | 70 | 158 | 0.9 | 1.7 | 0.00 | 0.00 | 0.00 | 59 | 1010.0 |
| 20260507160940 | 73 | 338 | 1.7 | 1.7 | 0.00 | 0.00 | 0.00 | 46 | 1011.0 |
| 20260507155440 | 73 | 338 | 1.7 | 1.7 | 0.00 | 0.00 | 0.00 | 46 | 1011.0 |
| 20260507153940 | 73 | 338 | 1.7 | 3.5 | 0.00 | 0.00 | 0.00 | 46 | 1011.0 |
| 20260507152440 | 74 | 202 | 0.9 | 2.6 | 0.00 | 0.00 | 0.00 | 45 | 1011.0 |
| 20260507150941 | 75 | 68 | 0.0 | 3.5 | 0.00 | 0.00 | 0.00 | 42 | 1011.0 |
| 20260507145441 | 76 | 158 | 1.7 | 6.1 | 0.00 | 0.00 | 0.00 | 38 | 1010.0 |
| 20260507143939 | 77 | 158 | 0.0 | 4.3 | 0.00 | 0.00 | 0.00 | 37 | 1010.0 |
| 20260507142441 | 78 | 90 | 2.6 | 3.5 | 0.00 | 0.00 | 0.00 | 36 | 1010.0 |
| 20260507140941 | 79 | 292 | 1.7 | 3.5 | 0.00 | 0.00 | 0.00 | 35 | 1010.0 |
| 20260507135441 | 82 | 158 | 1.7 | 1.7 | 0.00 | 0.00 | 0.00 | 35 | 1010.0 |
| 20260507133940 | 82 | 112 | 1.7 | 4.3 | 0.00 | 0.00 | 0.00 | 34 | 1010.0 |
| 20260507132440 | 82 | 202 | 1.7 | 3.5 | 0.00 | 0.00 | 0.00 | 35 | 1010.0 |
| 20260507130941 | 82 | 135 | 1.7 | 3.5 | 0.00 | 0.00 | 0.00 | 35 | 1010.0 |
| 20260507125441 | 82 | 158 | 0.0 | 3.5 | 0.00 | 0.00 | 0.00 | 35 | 1010.0 |
| 20260507113941 | 84 | 158 | 1.7 | 1.7 | 0.00 | 0.00 | 0.00 | 34 | 1010.0 |
| 20260507112440 | 84 | 158 | 1.7 | 1.7 | 0.00 | 0.00 | 0.00 | 34 | 1011.0 |
| 20260507110941 | 84 | 112 | 1.7 | 4.3 | 0.00 | 0.00 | 0.00 | 34 | 1011.0 |
| 20260507105440 | 84 | 135 | 4.3 | 7.8 | 0.00 | 0.00 | 0.00 | 33 | 1011.0 |
| 20260507095441 | 82 | 158 | 0.9 | 0.9 | 0.00 | 0.00 | 0.00 | 35 | 1012.0 |
| 20260507093939 | 82 | 158 | 0.9 | 0.9 | 0.00 | 0.00 | 0.00 | 35 | 1012.0 |
| 20260507092440 | 81 | 180 | 2.6 | 2.6 | 0.00 | 0.00 | 0.00 | 37 | 1011.0 |
| 20260507090941 | 81 | 158 | 2.6 | 2.6 | 0.00 | 0.00 | 0.00 | 37 | 1012.0 |
| 20260507085440 | 80 | 90 | 5.2 | 5.2 | 0.00 | 0.00 | 0.00 | 39 | 1012.0 |
| 20260507083941 | 79 | 68 | 1.7 | 1.7 | 0.00 | 0.00 | 0.00 | 40 | 1012.0 |
| 20260507082441 | 78 | 90 | 1.7 | 1.7 | 0.00 | 0.00 | 0.00 | 44 | 1012.0 |
| 20260507080940 | 77 | 202 | 0.9 | 0.9 | 0.00 | 0.00 | 0.00 | 44 | 1012.0 |
| 20260507072440 | 72 | 158 | 0.9 | 0.9 | 0.00 | 0.00 | 0.00 | 49 | 1012.0 |
| 20260507070939 | 72 | 158 | 0.9 | 0.9 | 0.00 | 0.00 | 0.00 | 49 | 1012.0 |
| 20260507065440 | 72 | 112 | 0.0 | 1.7 | 0.00 | 0.00 | 0.00 | 49 | 1012.0 |
| 20260507042027 | 52 | 292 | 0.0 | 0.0 | 0.00 | 0.00 | 0.00 | 67 | 1011.0 |
| 20260507040528 | 52 | 292 | 0.0 | 0.0 | 0.00 | 0.00 | 0.00 | 67 | 1011.0 |
| 20260507035026 | 52 | 292 | 0.0 | 0.0 | 0.00 | 0.00 | 0.00 | 66 | 1011.0 |